• In Germany
  • List of Countries
  • For 7 days
  • Water Temperature
  • Satellite Maps
  • Weather Map
  • Weather Widgets
  • user-avatar
    Login

    Hourly Weather Ngo

    Today, 17 August, Thursday

    Time Temperature Precipitation Wind Pressure Humidity
    00:00 +27°C° 0 mm 2 mps 709 mmHg 54%
    01:00 +25°C° 0 mm 3 mps 709 mmHg 65%
    02:00 +24°C° 0 mm 3 mps 709 mmHg 67%
    03:00 +24°C° 0 mm 3 mps 709 mmHg 69%
    04:00 +22°C° 0 mm 3 mps 709 mmHg 72%
    05:00 +22°C° 0 mm 3 mps 709 mmHg 71%
    06:00 +22°C° 0 mm 3 mps 709 mmHg 71%
    07:00 +22°C° 0 mm 3 mps 709 mmHg 68%
    08:00 +25°C° 0 mm 3 mps 710 mmHg 60%
    09:00 +28°C° 0 mm 3 mps 710 mmHg 52%
    10:00 +30°C° 0 mm 3 mps 711 mmHg 44%
    11:00 +32°C° 0 mm 2 mps 710 mmHg 39%
    12:00 +34°C° 0 mm 2 mps 710 mmHg 33%
    13:00 +35°C° 0 mm 2 mps 709 mmHg 31%
    14:00 +36°C° 0 mm 2 mps 709 mmHg 30%
    15:00 +36°C° 0 mm 2 mps 708 mmHg 29%
    16:00 +36°C° 0 mm 2 mps 708 mmHg 27%
    17:00 +34°C° 0 mm 1 mps 708 mmHg 31%
    18:00 +32°C° 0 mm 1 mps 708 mmHg 34%
    19:00 +30°C° 0 mm 1 mps 708 mmHg 37%
    20:00 +30°C° 0 mm 1 mps 708 mmHg 39%
    21:00 +29°C° 0 mm 1 mps 709 mmHg 41%
    22:00 +28°C° 0 mm 2 mps 709 mmHg 43%
    23:00 +28°C° 0 mm 2 mps 709 mmHg 45%

    Tomorrow, 18 August, Friday

    Time Temperature Precipitation Wind Pressure Humidity
    00:00 +27°C° 0 mm 2 mps 709 mmHg 47%
    01:00 +27°C° 0 mm 2 mps 709 mmHg 49%
    02:00 +26°C° 0 mm 3 mps 709 mmHg 53%
    03:00 +26°C° 0 mm 3 mps 709 mmHg 56%
    04:00 +25°C° 0 mm 3 mps 709 mmHg 59%
    05:00 +25°C° 0 mm 3 mps 709 mmHg 62%
    06:00 +24°C° 0 mm 3 mps 709 mmHg 64%
    07:00 +24°C° 0 mm 3 mps 710 mmHg 66%
    08:00 +26°C° 0 mm 3 mps 710 mmHg 60%
    09:00 +28°C° 0 mm 3 mps 711 mmHg 54%
    10:00 +30°C° 0 mm 2 mps 711 mmHg 47%
    11:00 +32°C° 0 mm 2 mps 710 mmHg 43%
    12:00 +34°C° 0 mm 2 mps 710 mmHg 38%
    13:00 +35°C° 0 mm 1 mps 709 mmHg 33%
    14:00 +35°C° 0 mm 1 mps 708 mmHg 34%
    15:00 +34°C° 0 mm 1 mps 708 mmHg 34%
    16:00 +34°C° 0 mm 1 mps 707 mmHg 34%
    17:00 +33°C° 0 mm 1 mps 707 mmHg 37%
    18:00 +32°C° 0 mm 1 mps 708 mmHg 40%
    19:00 +31°C° 0 mm 1 mps 708 mmHg 43%
    20:00 +30°C° 0 mm 1 mps 708 mmHg 44%
    21:00 +30°C° 0 mm 1 mps 708 mmHg 46%
    22:00 +29°C° 0 mm 1 mps 709 mmHg 48%
    23:00 +29°C° 0 mm 1 mps 709 mmHg 49%

    Day after tomorrow, 19 August, Saturday

    Time Temperature Precipitation Wind Pressure Humidity
    00:00 +28°C° 0 mm 1 mps 708 mmHg 50%
    01:00 +28°C° 0 mm 1 mps 708 mmHg 52%
    02:00 +27°C° 0.3 mm 1 mps 708 mmHg 54%
    03:00 +27°C° 0.3 mm 1 mps 708 mmHg 57%
    04:00 +26°C° 0.3 mm 1 mps 708 mmHg 59%
    05:00 +26°C° 0.1 mm 1 mps 708 mmHg 60%
    06:00 +27°C° 0.1 mm 1 mps 709 mmHg 60%
    07:00 +27°C° 0.1 mm 1 mps 710 mmHg 60%
    08:00 +29°C° 0.1 mm 1 mps 710 mmHg 54%
    09:00 +31°C° 0.1 mm 1 mps 711 mmHg 48%
    10:00 +33°C° 0.1 mm 1 mps 712 mmHg 42%
    11:00 +33°C° 0.1 mm 1 mps 711 mmHg 43%
    12:00 +32°C° 0.1 mm 1 mps 710 mmHg 45%
    13:00 +32°C° 0.1 mm 1 mps 709 mmHg 47%
    14:00 +32°C° 0 mm 1 mps 709 mmHg 46%
    15:00 +32°C° 0 mm 1 mps 708 mmHg 46%
    16:00 +32°C° 0 mm 1 mps 708 mmHg 45%
    17:00 +31°C° 0 mm 1 mps 708 mmHg 49%
    18:00 +30°C° 0 mm 1 mps 708 mmHg 53%
    19:00 +29°C° 0 mm 1 mps 709 mmHg 57%
    20:00 +28°C° 0 mm 1 mps 709 mmHg 60%
    21:00 +28°C° 0 mm 1 mps 709 mmHg 63%
    22:00 +27°C° 0 mm 1 mps 709 mmHg 65%
    23:00 +27°C° 0 mm 1 mps 709 mmHg 67%

    20 August, Sunday

    Time Temperature Precipitation Wind Pressure Humidity
    00:00 +26°C° 0 mm 1 mps 709 mmHg 69%
    01:00 +26°C° 0 mm 1 mps 709 mmHg 70%
    02:00 +26°C° 0.2 mm 2 mps 709 mmHg 71%
    03:00 +25°C° 0.2 mm 2 mps 709 mmHg 72%
    04:00 +25°C° 0.2 mm 2 mps 709 mmHg 73%
    05:00 +25°C° 0.3 mm 2 mps 709 mmHg 72%
    06:00 +25°C° 0.3 mm 3 mps 710 mmHg 71%
    07:00 +25°C° 0.3 mm 3 mps 711 mmHg 70%
    08:00 +26°C° 0.7 mm 3 mps 711 mmHg 68%
    09:00 +27°C° 0.7 mm 3 mps 712 mmHg 65%
    10:00 +27°C° 0.7 mm 2 mps 713 mmHg 63%
    11:00 +28°C° 0.2 mm 2 mps 712 mmHg 62%
    12:00 +28°C° 0.2 mm 2 mps 711 mmHg 61%
    13:00 +28°C° 0.2 mm 2 mps 711 mmHg 60%
    14:00 +28°C° 0.1 mm 2 mps 710 mmHg 59%
    15:00 +28°C° 0.1 mm 3 mps 710 mmHg 58%
    16:00 +29°C° 0.1 mm 3 mps 709 mmHg 57%
    17:00 +28°C° 0 mm 2 mps 709 mmHg 60%
    18:00 +27°C° 0 mm 2 mps 710 mmHg 63%
    19:00 +26°C° 0 mm 1 mps 710 mmHg 66%
    20:00 +26°C° 0 mm 1 mps 710 mmHg 67%
    21:00 +26°C° 0 mm 2 mps 711 mmHg 68%
    22:00 +25°C° 0 mm 2 mps 711 mmHg 70%
    23:00 +25°C° 0 mm 2 mps 711 mmHg 70%

    21 August, Monday

    Time Temperature Precipitation Wind Pressure Humidity
    00:00 +25°C° 0 mm 2 mps 711 mmHg 71%
    01:00 +25°C° 0 mm 2 mps 710 mmHg 71%
    02:00 +24°C° 0.2 mm 2 mps 710 mmHg 72%
    03:00 +24°C° 0.2 mm 2 mps 710 mmHg 73%
    04:00 +24°C° 0.2 mm 2 mps 710 mmHg 74%
    05:00 +24°C° 0 mm 3 mps 711 mmHg 73%
    06:00 +24°C° 0 mm 3 mps 711 mmHg 72%
    07:00 +24°C° 0 mm 3 mps 712 mmHg 72%
    08:00 +26°C° 0 mm 3 mps 712 mmHg 65%
    09:00 +27°C° 0 mm 3 mps 712 mmHg 58%
    10:00 +29°C° 0 mm 3 mps 712 mmHg 51%
    11:00 +31°C° 0 mm 3 mps 712 mmHg 46%
    12:00 +33°C° 0 mm 3 mps 711 mmHg 41%
    13:00 +35°C° 0 mm 3 mps 710 mmHg 36%
    14:00 +35°C° 0 mm 3 mps 709 mmHg 37%
    15:00 +34°C° 0 mm 3 mps 708 mmHg 37%
    16:00 +34°C° 0 mm 3 mps 708 mmHg 37%
    17:00 +32°C° 0 mm 2 mps 708 mmHg 39%
    18:00 +31°C° 0 mm 2 mps 709 mmHg 42%
    19:00 +30°C° 0 mm 2 mps 709 mmHg 45%
    20:00 +30°C° 0 mm 2 mps 709 mmHg 46%
    21:00 +29°C° 0 mm 2 mps 710 mmHg 48%
    22:00 +28°C° 0 mm 2 mps 710 mmHg 49%
    23:00 +28°C° 0.1 mm 2 mps 710 mmHg 51%

    22 August, Tuesday

    Time Temperature Precipitation Wind Pressure Humidity
    00:00 +27°C° 0.1 mm 3 mps 710 mmHg 52%
    01:00 +27°C° 0.1 mm 3 mps 710 mmHg 54%
    02:00 +26°C° 0 mm 3 mps 710 mmHg 55%
    03:00 +25°C° 0 mm 3 mps 710 mmHg 56%
    04:00 +25°C° 0 mm 3 mps 710 mmHg 57%
    05:00 +25°C° 0 mm 3 mps 710 mmHg 59%
    06:00 +24°C° 0 mm 3 mps 710 mmHg 61%
    07:00 +24°C° 0 mm 3 mps 710 mmHg 63%
    08:00 +26°C° 0 mm 3 mps 711 mmHg 56%
    09:00 +28°C° 0 mm 3 mps 711 mmHg 49%
    10:00 +29°C° 0 mm 3 mps 712 mmHg 43%
    11:00 +31°C° 0 mm 3 mps 711 mmHg 38%
    12:00 +32°C° 0 mm 2 mps 710 mmHg 34%
    13:00 +35°C° 0 mm 2 mps 710 mmHg 30%
    14:00 +35°C° 0 mm 2 mps 709 mmHg 30%
    15:00 +35°C° 0 mm 2 mps 709 mmHg 30%
    16:00 +35°C° 0 mm 2 mps 708 mmHg 31%
    17:00 +32°C° 0 mm 2 mps 708 mmHg 34%
    18:00 +31°C° 0 mm 2 mps 708 mmHg 38%
    19:00 +30°C° 0 mm 1 mps 708 mmHg 42%
    20:00 +29°C° 0 mm 1 mps 709 mmHg 44%
    21:00 +28°C° 0 mm 1 mps 709 mmHg 47%
    22:00 +28°C° 0 mm 1 mps 709 mmHg 49%
    23:00 +27°C° 0 mm 1 mps 709 mmHg 51%
    Show more